When you browse on this site, cookies collect data to enhance your experience and personalize the content and advertising you see.
Visit our Privacy Policy to learn more. By continuing to use the site, you agree to this use of cookies and data.
  • In Schweiz
  • Länderverzeichnis
  • Für 7 Tage
  • Wassertemperatur
  • Satellitenkarten
  • Wetterkarte
  • Widgets
  • user-avatar
    Anmelden

    Stündliche Wetter Eldoret

    Heute, 20 März, Mittwoch

    Zeit Temperatur Niederschläge Wind Luftdruck Luftfeuchtigkeit
    00:00 +17°C° 0 mm 2 m/S 596 mmHg 54%
    01:00 +17°C° 0 mm 3 m/S 596 mmHg 58%
    02:00 +17°C° 0 mm 3 m/S 596 mmHg 63%
    03:00 +17°C° 0 mm 3 m/S 596 mmHg 64%
    04:00 +15°C° 0 mm 4 m/S 596 mmHg 65%
    05:00 +15°C° 0 mm 4 m/S 596 mmHg 66%
    06:00 +19°C° 0 mm 4 m/S 597 mmHg 57%
    07:00 +21°C° 0 mm 4 m/S 598 mmHg 47%
    08:00 +23°C° 0 mm 4 m/S 599 mmHg 37%
    09:00 +26°C° 0 mm 4 m/S 600 mmHg 31%
    10:00 +28°C° 0 mm 4 m/S 600 mmHg 25%
    11:00 +31°C° 0 mm 3 m/S 601 mmHg 18%
    12:00 +32°C° 0 mm 4 m/S 600 mmHg 18%
    13:00 +33°C° 0 mm 4 m/S 600 mmHg 17%
    14:00 +33°C° 0 mm 4 m/S 599 mmHg 17%
    15:00 +30°C° 0 mm 3 m/S 598 mmHg 22%
    16:00 +28°C° 0 mm 3 m/S 597 mmHg 28%
    17:00 +26°C° 0 mm 2 m/S 596 mmHg 33%
    18:00 +24°C° 0 mm 2 m/S 597 mmHg 40%
    19:00 +23°C° 0 mm 2 m/S 597 mmHg 47%
    20:00 +20°C° 0 mm 2 m/S 597 mmHg 54%
    21:00 +20°C° 0 mm 2 m/S 597 mmHg 55%
    22:00 +19°C° 0 mm 2 m/S 597 mmHg 57%
    23:00 +19°C° 0 mm 3 m/S 597 mmHg 58%

    Morgen, 21 März, Donnerstag

    Zeit Temperatur Niederschläge Wind Luftdruck Luftfeuchtigkeit
    00:00 +18°C° 0 mm 3 m/S 596 mmHg 62%
    01:00 +18°C° 0 mm 3 m/S 596 mmHg 66%
    02:00 +17°C° 0 mm 4 m/S 595 mmHg 69%
    03:00 +17°C° 0 mm 3 m/S 595 mmHg 69%
    04:00 +17°C° 0 mm 3 m/S 595 mmHg 69%
    05:00 +16°C° 0 mm 3 m/S 595 mmHg 68%
    06:00 +19°C° 0 mm 4 m/S 597 mmHg 56%
    07:00 +21°C° 0 mm 4 m/S 598 mmHg 44%
    08:00 +23°C° 0 mm 4 m/S 599 mmHg 32%
    09:00 +26°C° 0 mm 4 m/S 600 mmHg 27%
    10:00 +28°C° 0 mm 4 m/S 601 mmHg 22%
    11:00 +31°C° 0 mm 3 m/S 601 mmHg 17%
    12:00 +31°C° 0 mm 3 m/S 600 mmHg 16%
    13:00 +33°C° 0 mm 3 m/S 600 mmHg 15%
    14:00 +33°C° 0 mm 3 m/S 599 mmHg 15%
    15:00 +30°C° 0 mm 3 m/S 598 mmHg 21%
    16:00 +28°C° 0 mm 2 m/S 598 mmHg 27%
    17:00 +26°C° 0 mm 2 m/S 597 mmHg 33%
    18:00 +24°C° 0.4 mm 2 m/S 597 mmHg 43%
    19:00 +21°C° 0.4 mm 2 m/S 597 mmHg 53%
    20:00 +20°C° 0.4 mm 2 m/S 597 mmHg 62%
    21:00 +19°C° 0 mm 2 m/S 597 mmHg 63%
    22:00 +18°C° 0 mm 2 m/S 597 mmHg 63%
    23:00 +18°C° 0 mm 3 m/S 597 mmHg 63%

    übermorgen, 22 März, Freitag

    Zeit Temperatur Niederschläge Wind Luftdruck Luftfeuchtigkeit
    00:00 +17°C° 0 mm 3 m/S 596 mmHg 66%
    01:00 +17°C° 0 mm 3 m/S 596 mmHg 69%
    02:00 +17°C° 0 mm 3 m/S 595 mmHg 72%
    03:00 +17°C° 0 mm 3 m/S 596 mmHg 71%
    04:00 +16°C° 0 mm 3 m/S 596 mmHg 71%
    05:00 +16°C° 0 mm 3 m/S 596 mmHg 70%
    06:00 +19°C° 0 mm 3 m/S 597 mmHg 58%
    07:00 +21°C° 0 mm 3 m/S 598 mmHg 46%
    08:00 +23°C° 0 mm 4 m/S 600 mmHg 33%
    09:00 +27°C° 0 mm 3 m/S 600 mmHg 27%
    10:00 +29°C° 0 mm 3 m/S 601 mmHg 20%
    11:00 +31°C° 0 mm 3 m/S 602 mmHg 14%
    12:00 +33°C° 0 mm 3 m/S 601 mmHg 14%
    13:00 +33°C° 0 mm 3 m/S 600 mmHg 13%
    14:00 +34°C° 0 mm 3 m/S 600 mmHg 13%
    15:00 +31°C° 0 mm 3 m/S 599 mmHg 18%
    16:00 +29°C° 0 mm 3 m/S 598 mmHg 23%
    17:00 +27°C° 0 mm 2 m/S 598 mmHg 29%
    18:00 +25°C° 0.5 mm 2 m/S 598 mmHg 42%
    19:00 +23°C° 0.5 mm 1 m/S 597 mmHg 56%
    20:00 +20°C° 0.5 mm 1 m/S 597 mmHg 69%
    21:00 +20°C° 0.1 mm 1 m/S 597 mmHg 68%
    22:00 +18°C° 0.1 mm 2 m/S 597 mmHg 68%
    23:00 +18°C° 0.1 mm 2 m/S 597 mmHg 67%

    23 März, Samstag

    Zeit Temperatur Niederschläge Wind Luftdruck Luftfeuchtigkeit
    00:00 +17°C° 0 mm 3 m/S 597 mmHg 69%
    01:00 +17°C° 0 mm 3 m/S 596 mmHg 72%
    02:00 +17°C° 0 mm 3 m/S 596 mmHg 74%
    03:00 +17°C° 0 mm 3 m/S 596 mmHg 73%
    04:00 +16°C° 0 mm 3 m/S 596 mmHg 73%
    05:00 +16°C° 0 mm 3 m/S 596 mmHg 72%
    06:00 +19°C° 0 mm 3 m/S 598 mmHg 60%
    07:00 +21°C° 0 mm 3 m/S 599 mmHg 49%
    08:00 +23°C° 0 mm 4 m/S 600 mmHg 37%
    09:00 +27°C° 0 mm 3 m/S 601 mmHg 29%
    10:00 +29°C° 0 mm 3 m/S 601 mmHg 21%
    11:00 +31°C° 0 mm 3 m/S 602 mmHg 14%
    12:00 +33°C° 0 mm 3 m/S 601 mmHg 13%
    13:00 +34°C° 0 mm 3 m/S 600 mmHg 12%
    14:00 +34°C° 0 mm 3 m/S 600 mmHg 11%
    15:00 +31°C° 0 mm 3 m/S 599 mmHg 16%
    16:00 +30°C° 0 mm 3 m/S 598 mmHg 21%
    17:00 +28°C° 0 mm 3 m/S 598 mmHg 25%
    18:00 +25°C° 0.4 mm 2 m/S 597 mmHg 39%
    19:00 +23°C° 0.4 mm 2 m/S 597 mmHg 52%
    20:00 +21°C° 0.4 mm 1 m/S 597 mmHg 66%
    21:00 +20°C° 0 mm 1 m/S 597 mmHg 65%
    22:00 +19°C° 0 mm 2 m/S 597 mmHg 63%
    23:00 +18°C° 0 mm 2 m/S 597 mmHg 62%

    24 März, Sonntag

    Zeit Temperatur Niederschläge Wind Luftdruck Luftfeuchtigkeit
    00:00 +18°C° 0 mm 2 m/S 596 mmHg 67%
    01:00 +17°C° 0 mm 2 m/S 596 mmHg 72%
    02:00 +17°C° 0 mm 2 m/S 595 mmHg 76%
    03:00 +16°C° 0 mm 2 m/S 595 mmHg 76%
    04:00 +16°C° 0 mm 3 m/S 595 mmHg 77%
    05:00 +16°C° 0 mm 3 m/S 596 mmHg 77%
    06:00 +18°C° 0 mm 3 m/S 597 mmHg 67%
    07:00 +21°C° 0 mm 3 m/S 598 mmHg 57%
    08:00 +24°C° 0 mm 3 m/S 599 mmHg 47%
    09:00 +26°C° 0 mm 3 m/S 600 mmHg 38%
    10:00 +29°C° 0 mm 3 m/S 600 mmHg 28%
    11:00 +31°C° 0 mm 3 m/S 601 mmHg 19%
    12:00 +33°C° 0 mm 3 m/S 600 mmHg 17%
    13:00 +33°C° 0 mm 3 m/S 599 mmHg 15%
    14:00 +34°C° 0 mm 3 m/S 599 mmHg 13%
    15:00 +31°C° 0 mm 3 m/S 598 mmHg 19%
    16:00 +29°C° 0 mm 3 m/S 598 mmHg 26%
    17:00 +27°C° 0 mm 3 m/S 597 mmHg 33%
    18:00 +24°C° 0.7 mm 2 m/S 596 mmHg 48%
    19:00 +20°C° 0.7 mm 2 m/S 596 mmHg 63%
    20:00 +18°C° 0.7 mm 1 m/S 595 mmHg 79%
    21:00 +17°C° 0 mm 2 m/S 595 mmHg 75%
    22:00 +17°C° 0 mm 2 m/S 595 mmHg 71%
    23:00 +16°C° 0 mm 2 m/S 595 mmHg 67%

    25 März, Montag

    Zeit Temperatur Niederschläge Wind Luftdruck Luftfeuchtigkeit
    00:00 +16°C° 0 mm 2 m/S 595 mmHg 70%
    01:00 +16°C° 0 mm 3 m/S 594 mmHg 74%
    02:00 +16°C° 0 mm 3 m/S 594 mmHg 77%
    03:00 +16°C° 0 mm 3 m/S 594 mmHg 77%
    04:00 +16°C° 0 mm 3 m/S 595 mmHg 77%
    05:00 +16°C° 0 mm 3 m/S 595 mmHg 77%
    06:00 +18°C° 0 mm 3 m/S 596 mmHg 66%
    07:00 +21°C° 0 mm 3 m/S 598 mmHg 54%
    08:00 +24°C° 0 mm 3 m/S 599 mmHg 42%
    09:00 +26°C° 0 mm 3 m/S 600 mmHg 34%
    10:00 +29°C° 0 mm 3 m/S 600 mmHg 25%
    11:00 +31°C° 0 mm 3 m/S 600 mmHg 16%
    12:00 +31°C° 0 mm 3 m/S 600 mmHg 15%
    13:00 +33°C° 0 mm 3 m/S 599 mmHg 14%
    14:00 +33°C° 0 mm 4 m/S 599 mmHg 13%
    15:00 +31°C° 0 mm 3 m/S 598 mmHg 17%
    16:00 +29°C° 0 mm 3 m/S 598 mmHg 21%
    17:00 +28°C° 0 mm 2 m/S 597 mmHg 25%
    18:00 +25°C° 0 mm 2 m/S 597 mmHg 34%
    19:00 +21°C° 0 mm 2 m/S 596 mmHg 42%
    20:00 +19°C° 0 mm 2 m/S 596 mmHg 51%
    21:00 +18°C° 0 mm 2 m/S 596 mmHg 50%
    22:00 +18°C° 0 mm 2 m/S 596 mmHg 49%
    23:00 +17°C° 0 mm 2 m/S 596 mmHg 48%
    Mehr zeigen